Weather reports worldwide

Advertisment
Gioia Del Colle, Italy (16312): temperature & dewpoint: 08.12.2018 00:00:00 - 14.12.2018 00:00:00 (CET)Gioia Del Colle, Italy (16312): wind speed: 08.12.2018 00:00:00 - 14.12.2018 00:00:00 (CET)Gioia Del Colle, Italy (16312): wind direction: 08.12.2018 00:00:00 - 14.12.2018 00:00:00 (CET)Gioia Del Colle, Italy (16312): reduced air pressure: 08.12.2018 00:00:00 - 14.12.2018 00:00:00 (CET)Gioia Del Colle, Italy (16312): visibility: 08.12.2018 00:00:00 - 14.12.2018 00:00:00 (CET)
Date & Time tt [°C] td [°C] ff [km/h] ff [kn] dd ppp [hPa] vv [km]
14.12.2018 00:00:00 9,0 9,0 9 5 SE - 3,0
13.12.2018 23:00:00 9,0 9,0 11 6 S - 0,2
13.12.2018 22:00:00 9,2 9,2 11 6 S 1011,6 0,1
13.12.2018 21:00:00 9,0 9,0 15 8 S - 0,1
13.12.2018 20:00:00 9,0 9,0 15 8 S - 0,2
13.12.2018 19:00:00 9,2 9,2 16 9 SSE 1011,1 1,6
13.12.2018 18:00:00 9,0 9,0 15 8 S - 2,8
13.12.2018 17:00:00 9,0 9,0 11 6 SE - 2,8
13.12.2018 16:00:00 9,6 9,6 21 11 SSE 1011,2 2,8
13.12.2018 15:00:00 9,0 9,0 21 11 SSE - 3,5
13.12.2018 14:00:00 9,0 9,0 24 13 SSE - 2,7
13.12.2018 13:00:00 8,8 8,5 26 14 SSE 1012,3 5
13.12.2018 12:00:00 8,0 8,0 26 14 SSE - 6
13.12.2018 11:00:00 8,0 8,0 24 13 SE - 5
13.12.2018 10:00:00 7,8 7,5 18 10 SE 1014,3 4,0
13.12.2018 09:00:00 8,0 7,0 18 10 SE - 5
13.12.2018 08:00:00 7,0 7,0 21 11 SE - 8
13.12.2018 07:00:00 7,0 5,0 16 9 SE 1014,8 8
13.12.2018 06:00:00 7,0 4,0 15 8 SE - 9
13.12.2018 05:00:00 5,0 3,0 5 3 SSE - 9
13.12.2018 04:00:00 5,0 3,0 4 2 S 1016,6 9
13.12.2018 03:00:00 5,0 3,0 2 1 - - 9
13.12.2018 02:00:00 5,0 3,0 4 2 S - 9
13.12.2018 01:00:00 4,6 2,5 9 5 SE 1018,2 8
13.12.2018 00:00:00 3,0 3,0 2 1 - - 9
12.12.2018 23:00:00 3,0 2,0 2 1 - - 10
12.12.2018 22:00:00 3,0 2,4 4 2 N 1019,4 10
12.12.2018 21:00:00 3,0 2,0 2 1 - - 10
12.12.2018 20:00:00 3,0 2,0 4 2 - - 10
12.12.2018 19:00:00 3,8 2,2 2 1 N 1019,5 10
12.12.2018 18:00:00 5,0 2,0 5 3 ESE - 10
12.12.2018 17:00:00 6,0 0,0 11 6 S - 10
12.12.2018 16:00:00 8,0 -1,5 8 4 S 1018,7 10
12.12.2018 15:00:00 10,0 -3,0 8 4 S - 10
12.12.2018 14:00:00 9,0 -1,0 9 5 SSW - 10
12.12.2018 13:00:00 9,2 -0,4 5 3 S 1019,4 10
12.12.2018 12:00:00 9,0 0,0 4 2 - - 10
12.12.2018 11:00:00 9,0 2,0 4 2 - - 10
12.12.2018 10:00:00 7,4 2,1 4 2 NW 1020,4 10
12.12.2018 09:00:00 4,0 1,0 2 1 - - 10
12.12.2018 08:00:00 4,0 2,0 4 2 - - 10
12.12.2018 07:00:00 2,2 1,8 8 4 N 1019,9 10
12.12.2018 06:00:00 3,0 3,0 8 4 NNW - 10
12.12.2018 05:00:00 3,0 2,0 2 1 - - 10
12.12.2018 04:00:00 3,6 2,9 8 4 N 1019,6 10
12.12.2018 03:00:00 4,0 3,0 4 2 - - 10
12.12.2018 02:00:00 4,0 3,0 13 7 NW - 10
12.12.2018 01:00:00 3,8 3,5 11 6 NW 1019,7 10
12.12.2018 00:00:00 4,0 3,0 13 7 N - 10
11.12.2018 23:00:00 4,0 3,0 15 8 WNW - 10
11.12.2018 22:00:00 3,6 3,3 8 4 WNW 1019,6 10
11.12.2018 21:00:00 4,0 3,0 11 6 NNW - 10
11.12.2018 20:00:00 5,0 4,0 4 2 NW - 10
11.12.2018 19:00:00 6,8 3,4 8 4 NNW 1018,0 10
11.12.2018 18:00:00 7,0 4,0 11 6 N - 10
11.12.2018 17:00:00 8,0 4,0 16 9 NNW - 10
11.12.2018 16:00:00 9,2 0,9 21 11 NNW 1016,4 10
11.12.2018 15:00:00 10,0 0,0 18 10 NW - 10
11.12.2018 14:00:00 10,0 0,0 15 8 NNW - 10
11.12.2018 13:00:00 9,8 1,4 16 9 WNW 1015,9 10
11.12.2018 12:00:00 9,0 2,0 21 11 NW - 10
11.12.2018 11:00:00 8,0 2,0 21 11 WNW - 10
11.12.2018 10:00:00 6,8 2,9 26 14 NW 1016,8 10
11.12.2018 09:00:00 4,0 4,0 18 10 WNW - 9
11.12.2018 08:00:00 6,0 4,0 24 13 NNW - 7
11.12.2018 07:00:00 6,6 4,6 21 11 WNW 1015,3 7
11.12.2018 06:00:00 7,0 5,0 13 7 WNW - 7
11.12.2018 05:00:00 7,0 5,0 29 16 N - 7
11.12.2018 04:00:00 7,0 5,5 22 12 NW 1014,3 8
11.12.2018 03:00:00 7,0 7,0 18 10 NW - 7
11.12.2018 02:00:00 7,0 6,0 28 15 NNW - 10
11.12.2018 01:00:00 6,4 4,7 24 13 NW 1013,7 10
11.12.2018 00:00:00 7,0 5,0 26 14 NNW - 10
10.12.2018 23:00:00 8,0 4,0 22 12 NNW - 10
10.12.2018 22:00:00 7,8 5,3 22 12 WNW 1013,5 10
10.12.2018 21:00:00 9,0 6,0 28 15 NW - 10
10.12.2018 20:00:00 9,0 6,0 21 11 NW - 10
10.12.2018 19:00:00 9,0 6,8 13 7 NNW 1012,0 10
10.12.2018 18:00:00 9,0 7,0 9 5 NNW - 8
10.12.2018 17:00:00 9,0 7,0 28 15 NNE - 7
10.12.2018 16:00:00 9,8 5,8 9 5 N 1011,6 6
10.12.2018 15:00:00 12,0 5,0 34 18 NE - 9
10.12.2018 14:00:00 14,0 5,0 22 12 NW - 10
10.12.2018 13:00:00 14,0 4,0 24 13 NW 1010,7 10
10.12.2018 12:00:00 14,0 3,0 26 14 NW - 10
10.12.2018 11:00:00 14,0 4,0 28 15 NW - 10
10.12.2018 10:00:00 13,6 6,0 22 12 NW 1010,8 10
10.12.2018 09:00:00 12,0 7,0 22 12 NW - 10
10.12.2018 08:00:00 11,0 7,0 26 14 NW - 10
10.12.2018 07:00:00 10,0 7,6 16 9 NW 1008,8 10
10.12.2018 06:00:00 10,0 7,0 15 8 NW - 10
10.12.2018 05:00:00 11,0 7,0 21 11 NW - 10
10.12.2018 04:00:00 11,2 6,5 21 11 NW 1007,5 10
10.12.2018 03:00:00 12,0 6,0 21 11 NW - 10
10.12.2018 02:00:00 13,0 5,0 18 10 NW - 10
10.12.2018 01:00:00 12,2 6,1 15 8 WNW 1006,8 10
10.12.2018 00:00:00 11,0 8,0 15 8 W - 10
09.12.2018 23:00:00 10,0 8,0 13 7 W - 10
09.12.2018 22:00:00 11,4 9,1 16 9 WSW 1007,6 10
09.12.2018 21:00:00 12,0 10,0 15 8 WSW - 10
09.12.2018 20:00:00 13,0 10,0 22 12 W - 10
09.12.2018 19:00:00 13,6 9,1 28 15 W 1007,2 10
09.12.2018 18:00:00 13,0 8,0 11 6 WSW - 10
09.12.2018 17:00:00 14,0 8,0 15 8 WSW - 10
09.12.2018 16:00:00 14,0 5,6 5 3 S 1008,7 10
09.12.2018 15:00:00 15,0 4,0 16 9 S - 10
09.12.2018 14:00:00 15,0 2,0 21 11 SSE - 10
09.12.2018 13:00:00 14,2 -1,8 22 12 S 1010,2 10
09.12.2018 12:00:00 14,0 0,0 16 9 SSW - 10
09.12.2018 11:00:00 14,0 -2,0 18 10 WSW - 10
09.12.2018 10:00:00 12,2 -1,3 13 7 W 1013,6 10
09.12.2018 09:00:00 11,0 1,0 15 8 W - 10
09.12.2018 08:00:00 9,0 5,0 21 11 W - 10
09.12.2018 07:00:00 8,2 5,1 11 6 WNW 1014,4 10
09.12.2018 06:00:00 9,0 5,0 15 8 WNW - 10
09.12.2018 05:00:00 9,0 6,0 21 11 WNW - 10
09.12.2018 04:00:00 9,0 6,1 22 12 WNW 1013,6 10
09.12.2018 03:00:00 9,0 6,0 26 14 WNW - 10
09.12.2018 02:00:00 10,0 7,0 28 15 WNW - 10
09.12.2018 01:00:00 9,2 6,8 22 12 WNW 1013,6 10
09.12.2018 00:00:00 10,0 6,0 18 10 WNW - 10
08.12.2018 23:00:00 10,0 7,0 28 15 WNW - 10
08.12.2018 22:00:00 10,2 7,1 29 16 WNW 1012,7 10
08.12.2018 21:00:00 11,0 8,0 26 14 WNW - 10
08.12.2018 20:00:00 11,0 8,0 26 14 WNW - 10
08.12.2018 19:00:00 11,6 10,4 24 13 NW 1010,6 8
08.12.2018 18:00:00 12,0 11,0 18 10 NW - 8
08.12.2018 17:00:00 14,0 8,0 31 17 WNW - 10
08.12.2018 16:00:00 14,0 8,0 22 12 WSW 1008,4 10
08.12.2018 15:00:00 14,0 12,0 13 7 WSW - 10
08.12.2018 14:00:00 16,0 10,0 18 10 S - 10
08.12.2018 13:00:00 16,6 9,8 28 15 S 1009,6 10
08.12.2018 12:00:00 16,0 9,0 26 14 S - 10
08.12.2018 11:00:00 15,0 10,0 24 13 SSE - 10
08.12.2018 10:00:00 13,6 9,8 21 11 SSE 1012,1 10
08.12.2018 09:00:00 12,0 9,0 22 12 SSE - 8
08.12.2018 08:00:00 11,0 8,0 34 18 S - 7
08.12.2018 07:00:00 10,2 7,4 21 11 SSE 1014,3 7
08.12.2018 06:00:00 9,0 8,0 18 10 SSE - 6
08.12.2018 05:00:00 9,0 9,0 13 7 S - 5
08.12.2018 04:00:00 8,8 8,8 15 8 SSE 1016,2 4,5
08.12.2018 03:00:00 8,0 8,0 8 4 SSE - 4,5
08.12.2018 02:00:00 9,0 8,0 15 8 SSE - 5
08.12.2018 01:00:00 8,4 8,1 13 7 S 1017,8 5
08.12.2018 00:00:00 8,0 8,0 11 6 S - 7

tt = temperature
td = dewpoint
ff = wind speed
dd = wind direction
ppp = reduced air pressure
vv = visibility

Next stations